FENGYUN 1C DEB, 33688

Orbit data source: Space-Track

FENGYUN 1C DEB, 33688 is space debris in SSO originally from a launch on Mon, 10 May 1999 UTC launched from the Taiyaun Space Center, China (TSC). Fengyun 1C debris stems from the Chinese weather satellite Fengyun-1C, which was intentionally destroyed by a Chinese anti-satellite missile in 2007. This event dramatically increased the amount of space debris, with thousands of trackable fragments posing hazards to satellites and human spaceflight. The Fengyun 1C debris cloud has become a focal point in discussions about space sustainability and the need for international regulations to prevent the creation of new debris.

Loading next visibility...
Identifier
33688, 1999-025DFZ
Orbit
SSO
Country
Flag of CNCN / PRC
Related business
Manufacturer
Unknown
Mission
Spacecraft
Bus & Motor
Unknown
Mass
Unknown
Launch date (UTC)
1999-05-10 (27 years ago)
Launch vehicle
Unknown
Launch site
Taiyaun Space Center, China (TSC)
Object type
Payload
Rocket body
Debris
Shape & HBR
Unknown shape, 0.1 m
Radar Cross Section
Small (<0.1 m²)

Expand to show TLE details & history
Last TLE update: 2 days ago

TLE from 2 days ago
0 FENGYUN 1C DEB
1 33688U 99025DFZ 26253.34229414  .00006460  00000-0  16418-2 0  9998
2 33688  99.3598  28.5690 0049966 179.6631 180.4602 14.50359663954135
Epoch: 2026-09-10T08:12Z
TLE epoch observation values (Epoch: 2026-09-10T08:12:54.213Z)
Latitude
-0.00006°
Longitude
-84.03826°
Altitude
762.903 km
Speed
7.454 km/s
True Right ascension
01h 54m 16s
True Declination
0° 00' 00"
Sunlit
Object was in full shadow at epoch
Visualization orbit readout
Latitude
Unknown
Longitude
Unknown
Altitude
Unknown
Speed
Unknown
Apparent Right ascension
Unknown
Apparent Declination
Unknown
Sunlit
N/A
Visualization observer readout
Local Sidereal Time
09:43:19
Azimuth
Unknown
Elevation
Unknown
Doppler factor
Unknown
Orbital elements
Apogee altitude
757.099 km
Perigee altitude
686.15 km
Semi-major axis
7,099.762 km
Eccentricity
0.005
Inclination
99.3598°
RAAN
28.569°
Arg. of periapsis
179.6631°
True anomaly
180.45563°
Mean anomaly
180.4602°
Eccentric anomaly
180.45791°
Mean motion
3.62809 °/min
Orbital period
99.23 mins
BSTAR
0.0016418
Loading maneuver chart data...
Computing Atmospheric mass density...
Loading historical data...
Loading historical data...
Loading historical data...
Loading historical data...
Loading historical data...
Loading historical data...
Loading historical data...

Documentation

Showing up to 5 results
|